OBJECT G, 66999

Orbit data source: Space-Track

You're viewing an Uncataloged Satellite

Recently launched and/or uncataloged satellites may have evolving metadata. Metadata may include but not limited to: Owner, Maufacturer, Bus, Motor, and Mission.

OBJECT G, 66999 is a Chinese satellite in SSO that was launched on Wed, 10 Dec 2025 UTC via a LIJIAN-1 launch vehicle from the Jiuquan Satellite Launch Center, China (JSC). Unknown objects in Earth's orbit typically refer to objects detected orbiting the Earth but have not yet been identified or cataloged. These objects could be anything from previously untracked satellites, spent rocket stages, debris from satellite collisions, or even natural meteoroids temporarily captured by Earth's gravity.

Loading next visibility...
Identifier
66999, 2025-292G
Orbit
SSO
Country
Flag of CNCN / PRC
Related business
None
Manufacturer
Unknown
Mission
Operational Amateur Technology
Bus & Motor
Unknown
Mass
Unknown
Launch date (UTC)
2025-12-10 (6 months ago)
Launch vehicle
LIJIAN-1
Launch site
Jiuquan Satellite Launch Center, China (JSC)
Object type
Unknown
Shape & HBR
Box + 2 Pan, 1.1 m
Radar Cross Section
0.035 m², Large (>1 m²)

Expand to show TLE details & history
Last TLE update: 1 day ago

TLE from 1 day ago
0 OBJECT G
1 66999U 25292G   26170.77832426  .00003285  00000-0  22420-3 0  9995
2 66999  97.6349 246.7026 0015264   7.0943 353.0498 15.06818719 28847
Epoch: 2026-06-19T18:40Z
TLE epoch observation values (Epoch: 2026-06-19T18:40:47.216Z)
Latitude
0.00006°
Longitude
58.50344°
Altitude
538.501 km
Speed
7.599 km/s
True Right ascension
16h 26m 48s
True Declination
0° 00' 00"
Sunlit
Object was in full shadow at epoch
Visualization orbit readout
Latitude
Unknown
Longitude
Unknown
Altitude
Unknown
Speed
Unknown
Apparent Right ascension
Unknown
Apparent Declination
Unknown
Sunlit
N/A
Visualization observer readout
Local Sidereal Time
07:18:07
Azimuth
Unknown
Elevation
Unknown
Doppler factor
Unknown
Orbital elements
Apogee altitude
553.486 km
Perigee altitude
532.358 km
Semi-major axis
6,921.059 km
Eccentricity
0.00153
Inclination
97.6349°
RAAN
246.7026°
Arg. of periapsis
7.0943°
True anomaly
353.02859°
Mean anomaly
353.0498°
Eccentric anomaly
353.0392°
Mean motion
3.76951 °/min
Orbital period
95.5 mins
BSTAR
0.0002242
Loading maneuver chart data...
Computing Atmospheric mass density...
Loading historical data...
Loading historical data...
Loading historical data...
Loading historical data...
Loading historical data...
Loading historical data...
Loading historical data...

Documentation

Showing up to 5 results
|